www.pogodaiklimat.ru

Погода и климат >> Архив погоды >> Россия >> Астраханская область >> Астрахань


АРХИВ ПОГОДЫ в Астрахани

Время (UTC), дата Ветер
(напр.,м/с)
 
Видим.   Явления Облачность Т
(С)
Тd
(С)
f
(%)
Тe
(С)
Тes
(С)
Комфортность P
(гПа)
Po
(гПа)
Тmin
(С)
Tmax
(С)
R
(мм)
R24
(мм)
S
(см)
06 15.04 В 3 10 км 8/3 600 м
[Cb cap Ac trans Ci fib]
+18.6 +10.4 59 +19 +23 тепло 1013.7 1016.2
09 15.04 В 5
{10}
10 км 8/6 600 м
[Cb cap Ci fib]
+21.9 +8.7 43 +23 +26 комфорт 1013.7 1016.1
12 15.04 В 4
{11}
10 км 9/8 600 м
[Cb cap Ac trans Ci fib]
+20.6 +7.5 43 +22 +23 комфорт 1013.8 1016.2
15 15.04 В 3 10 км 9/8 600 м
[Cb cap Ci fib]
+18.5 +8.6 52 +19 +19 тепло 1014.0 1016.5 +22.0
18 15.04 СВ 2 10 км 3/0
[Ci fib]
+14.4 +9.7 73 +14 +14 тепло 1014.7 1017.3
21 15.04 СВ 3 10 км 9/0
[Ac trans Ci fib]
+13.7 +8.7 72 +13 +13 тепло 1013.8 1016.3
00 16.04 СВ 3 10 км 3/0
[Ci fib]
+13.1 +9.1 77 +12 +12 тепло 1012.3 1014.8
03 16.04 СВ 4 10 км 9/3
[Cb cap Ac trans Ci fib]
+13.1 +9.6 79 +11 +12 тепло 1012.0 1014.5 +12.3
06 16.04 В 3 10 км 9/0
[Ac As]
+18.3 +9.6 57 +19 +23 тепло 1011.8 1014.3
09 16.04 В 5
{11}
10 км 10/0
[As op]
+20.3 +9.7 51 +22 +23 комфорт 1010.7 1013.2
12 16.04 В 4
{10}
10 км 9/4 600 м
[Cb cap Ac trans Ci fib]
+19.4 +11.2 59 +21 +22 комфорт 1009.2 1011.7
15 16.04 В 4
{10}
10 км 10/10 300 м
[Cb cap]
+13.5 +9.9 79 +12 +12 по сезону 1009.0 1011.6 +21.7
18 16.04 В 3 2000 м морось {ливн. осадки} 10/10 200 м
[St]
+12.2 +11.1 93 +11 +11 по сезону 1009.6 1012.1
21 16.04 В 3 4000 м в посл. час морось 10/10 300 м
[St]
+12.7 +11.3 91 +11 +11 тепло 1008.5 1011.1
00 17.04 В 1 4000 м дымка 10/10 300 м
[St]
+12.7 +11.3 91 +13 +13 тепло 1008.4 1010.9
03 17.04 СВ 2 2000 м слаб. дождь 10/8 300 м
[Frnb As trans]
+12.7 +11.8 94 +12 +12 тепло 1007.6 1010.1 +12.1 1
06 17.04 СВ 4-10
{11}
4000 м слаб. дождь 10/10 300 м
[Frnb Ns]
+12.3 +10.9 91 +10 +10 по сезону 1008.4 1010.9
09 17.04 С 7-15
{15}
4000 м слаб. дождь 10/10 300 м
[Frnb Ns]
+8.5 +6.8 89 +4 +4 очень
холодно
1009.2 1011.8
12 17.04 С 7-17
{17}
4000 м слаб. дождь 10/10 200 м
[Frnb Ns]
+6.5 +5.0 90 +1 +1 очень
холодно
1010.5 1013.1
15 17.04 С 7-13
{17}
4000 м слаб. дождь 10/10 300 м
[Frnb Ns]
+6.3 +3.9 85 +1 +1 очень
холодно
1011.6 1014.2 +13.4 4
18 17.04 С 6-13
{15}
4000 м слаб. ливневой дождь 10/10 300 м
[Cb cap]
+5.2 -0.5 67 +1 +1 очень
холодно
1013.2 1015.8
21 17.04 С 7-13
{14}
10 км в посл. час ливневой дождь 9/8 300 м
[Cb cap Ac trans]
+5.5 -6.5 42 +1 +1 холодно 1012.9 1015.5
00 18.04 С 5-12
{15}
10 км {ливн. осадки} 9/8 300 м
[Cb cap Ac trans]
+4.6 -5.9 46 +1 +1 прохладно 1014.0 1016.6
03 18.04 С 5-10
{14}
10 км 9/3 600 м
[Cb cap Ac trans Ci fib]
+2.9 -6.0 52 -2 -2 очень
холодно
1016.2 1018.8 +2.9 0.3
06 18.04 С 5-12
{13}
10 км 9/8 600 м
[Sc Ac trans]
+2.4 -8.3 45 -2 -2 очень
холодно
1018.7 1021.4 +2.1
09 18.04 С 5
{13}
10 км 6/0
[Ac trans]
+6.6 -6.1 40 +3 +8 очень
холодно
1020.0 1022.7
12 18.04 С 5
{11}
10 км 3/0
[Ci fib]
+7.9 -8.1 31 +5 +9 очень
холодно
1020.6 1023.2
15 18.04 С 3
{10}
10 км 3/0
[Ci fib]
+7.3 -11.0 26 +5 +6 очень
холодно
1020.9 1023.5 +8.3
18 18.04 СВ 1 10 км 3/0
[Ci fib]
+4.4 -9.0 37 +4 +4 холодно 1022.9 1025.5
21 18.04 штиль 0 10 км 3/0
[Ci fib]
+0.3 -4.4 71 -1 -1 очень
холодно
1023.2 1025.8
00 19.04 В 1 10 км 3/0
[Ci fib]
-0.8 -4.2 78 -3 -3 очень
холодно
1023.4 1026.1
03 19.04 СВ 1 4000 м дым 9/0
[Ac trans Ci fib]
-0.0 -3.9 75 -2 -1 очень
холодно
1023.6 1026.3 -2.1
06 19.04 СЗ 2 10 км 9/0
[Ci fib]
+6.5 -5.3 43 +5 +13 холодно 1024.4 1027.0
09 19.04 СВ 3 10 км 9/0
[Ac trans Ci fib]
+9.8 -11.0 22 +8 +16 холодно 1023.8 1026.4
12 19.04 СВ 4 10 км 9/0
[Ac trans Ci fib]
+9.6 -12.0 20 +8 +10 очень
холодно
1023.5 1026.1
15 19.04 СВ 2 10 км 9/5 1000 м
[Sc Ac trans Ci fib]
+9.0 -12.6 20 +8 +8 холодно 1023.5 1026.1 +10.2
18 19.04 СВ 1 10 км 6/0
[Ac trans Ci fib]
+3.3 -7.8 44 +3 +3 холодно 1024.5 1027.1
21 19.04 З 1 10 км 3/0
[Ci fib]
+3.0 -3.0 65 +2 +2 холодно 1024.6 1027.3
00 20.04 СЗ 1 10 км 1/0
[Ci fib]
-0.2 -2.9 82 -2 -2 очень
холодно
1023.5 1026.2
03 20.04 С 2 10 км 9/0
[Ci fib]
+4.4 -10.0 34 +3 +3 холодно 1023.7 1026.3 -0.3
06 20.04 СВ 5 10 км 8/0
[Ci fib]
+10.8 -10.4 21 +9 +13 прохладно 1024.1 1026.7
09 20.04 СВ 4 10 км 8/0
[Ci fib]
+13.3 -13.0 15 +12 +21 прохладно 1023.4 1025.9
12 20.04 С 4
{11}
10 км 4/0
[Ci fib]
+14.7 -12.6 14 +14 +19 прохладно 1022.7 1025.3
15 20.04 В 2 10 км 4/0
[Ci fib]
+12.3 -10.7 19 +12 +12 по сезону 1023.2 1025.8 +14.8
18 20.04 штиль 0 10 км 3/0
[Ci fib]
+5.0 -4.5 50 +5 +5 холодно 1024.6 1027.2
21 20.04 С 1 10 км 3/0
[Ci fib]
+2.9 -3.9 61 +2 +2 холодно 1024.4 1027.0
00 21.04 СЗ 2 10 км 1/0
[Ci fib]
+4.6 -4.6 51 +3 +3 прохладно 1023.6 1026.2
03 21.04 СЗ 2 10 км 4/0
[Ci fib]
+5.9 -3.6 50 +4 +5 холодно 1023.9 1026.5 +2.6
06 21.04 С 2 10 км 6/0
[Ci fib]
+13.1 -9.3 20 +13 +22 по сезону 1024.3 1026.9
09 21.04 С 2 10 км 8/0
[Ci sp]
+15.7 -11.0 15 +16 +29 опасность
простуды
1023.6 1026.2
12 21.04 В 3 10 км 9/1 1000 м
[Cu hum Ac trans Ci sp]
+16.6 -11.3 14 +17 +20 по сезону 1022.8 1025.3
15 21.04 ЮВ 3 10 км 8/0
[Ci fib]
+13.5 -8.4 21 +13 +13 по сезону 1023.5 1026.1 +16.8
18 21.04 ЮВ 1 10 км 6/0
[Ci fib]
+8.3 -4.1 41 +8 +8 по сезону 1024.8 1027.4
21 21.04 СЗ 1 10 км 3/0
[Ci fib]
+3.2 +0.2 81 +2 +2 холодно 1024.9 1027.6
00 22.04 СЗ 2 10 км ясно +5.5 -0.1 67 +3 +3 прохладно 1024.6 1027.3
03 22.04 С 2 10 км ясно +6.9 -0.2 61 +5 +6 холодно 1024.8 1027.4 +3.0

 

Местоположение метеостанции Астрахань (Астраханская область, Россия): широта 46.28 долгота 47.98 высота над уровнем моря -21 м.

В архиве по умолчанию представлена погода в Астрахани за последнюю неделю. Архивные данные за месяц целиком и за предыдущие месяцы, начиная с января 2011 года, Вы можете получить, выбрав интересующий диапазон дат из раскрывающегося списка и нажав кнопку "Ввод!".


*Определитесь, кто Вы:
робот инопланетянин человек

Внимание! Время в таблицах - всемирное. Для получения местного времени необходимо прибавить поправку, которая равна 4 ч.

Смотрите также архив погоды в соседних городах и на ближайших метеорологических станциях:

Погода в Зеленге (Астраханская область, Россия) (50 км)
Погода в Досанге (Астраханская область, Россия) (71 км)
Погода в Лимане (Астраханская область, Россия) (79 км)
Погода в Ганюшкино (Атырауская область, Казахстан) (105 км)
Погода в Лагани (Калмыкия, Россия) (109 км)
Погода в Харабали (Астраханская область, Россия) (136 км)
Погода в Утте (Калмыкия, Россия) (151 км)
Погода в Юсте (Калмыкия, Россия) (158 км)
Погода в Исатай (Атырауская область, Казахстан) (170 км)
Погода в Артезиане (Калмыкия, Россия) (177 км)

Пояснения к столбцам:

Ветер - указаны скорость ветра в м/с - средняя за 10 мин, порывы в срок и между сроками (в фигурных скобках) и направление, откуда дует ветер: С - северный, СВ - северо-восточный, В - восточный, ЮВ - юго-восточный, Ю - южный, ЮЗ - юго-западный, З - западный, СЗ - северо-западный.
Видимость - горизонтальная дальность видимости в метрах или километрах. При видимости от 1 до 10 км при отсутствии осадков обычно наблюдается дымка, при ухудшении видимости до 1 км и менее - туман. В сухую погоду видимость может ухудшаться дымом, пылью или мглою.
Явления - указаны атмосферные явления, наблюдавшиеся в срок или в последний час перед сроком; фигурными скобками обозначены явления, наблюдавшиеся между сроками (за 1-3 часа до срока); квадратными скобками обозначены град или гололедные отложения с указанием их диаметра в мм.
Облачность - указаны через наклонную черту общая и нижняя облачность в баллах и высота нижней границы облаков в метрах; квадратными скобками обозначены формы облаков: Ci - перистые, Cs - перисто-слоистые, Cc - перисто-кучевые, Ac - высококучевые, As - высокослоистые, Sc - слоисто-кучевые, Ns - слоисто-дождевые, Cu - кучевые, Cb - кучево-дождевые. Подробнее классификацию облаков см. в Атласе облаков (PDF).
T - Температура воздуха - температура, измеренная на высоте 2 м над землей.
Td - Температура точки росы - температура, при понижении до которой содержащийся в воздухе водяной пар достигнет насыщения.
f - Относительная влажность воздуха - влажноcть воздуха, измеренная на высоте 2 м над землей.
Te - Эффективная температура - температура, которую ощущает одетый по сезону человек в тени. Характеристика душности погоды. При расчете учитывается влияние влажности воздуха и скорости ветра на теплоощущения человека.
Tes - Эффективная температура на солнце - температура, которую ощущает человек, с поправкой на солнечный нагрев. Характеристика знойности погоды. Зависит от высоты солнца над горизонтом, облачности и скорости ветра. Ночью, в пасмурную погоду, а также при ветре 12 м/с и более поправка равна нулю.
P - Атмосферное давление - приведенное к уровню моря атмосферное давление.
Po - Атмосферное давление - измеренное на уровне метеостанции атмосферное давление.
Tmin - Минимальная температура - минимум температуры воздуха на высоте 2 м над землей.
Tmax - Максимальная температура - максимум температуры воздуха на высоте 2 м над землей.
R - Количество осадков - Количество выпавших осадков за период времени, мм. При наведении курсора мыши на число - период времени, за который выпало указанное количество осадков.
R24 - Количество осадков - Количество выпавших осадков за 24 часа, мм.
S - Снежный покров - Высота снежного покрова, см. При наведении курсора мыши на число - состояние снежного покрова и степень покрытия местности в баллах.